Simultaneous Nadir Overpasses (SNOs) Predictions

Prediction of SNOs between NOAA-15 and METOP-C Satellite Orbit:

Table of predicted SNOs for the next 14.0 days since TLE Epoch: 4/3/2020
Index Date (NOAA-15) Time (NOAA-15) Lat,Lon (NOAA-15) SZA (NOAA-15 ) Date (METOP-C) Time (METOP-C) Lat,Lon (METOP-C) SZA (METOP-C ) Distance(km) Time Diff (sec)
1 04/07/2020 18:10:19 -80.90, 122.74 104.68 04/07/2020 18:09:10 -80.90, 122.56 104.73 3.15 69
2 04/07/2020 19:00:52 80.90, -69.93 75.31 04/07/2020 18:59:51 80.91, -69.98 75.28 1.01 61
3 04/07/2020 19:51:22 -80.91, 97.32 104.72 04/07/2020 19:50:31 -80.91, 97.43 104.72 2.09 51
4 04/07/2020 20:41:55 80.91, -95.36 75.27 04/07/2020 20:41:13 80.90, -95.46 75.24 2.05 42
5 04/07/2020 21:32:25 -80.91, 71.90 104.75 04/07/2020 21:31:53 -80.90, 71.95 104.77 1.58 32
6 04/07/2020 22:22:57 80.90,-120.42 75.26 04/07/2020 22:22:34 80.91,-120.58 75.24 3.06 23
7 04/07/2020 23:13:27 -80.90, 46.84 104.77 04/07/2020 23:13:14 -80.91, 46.83 104.76 1.05 13
8 04/08/2020 00:04:00 80.91,-145.84 75.22 04/08/2020 00:03:55 80.92,-145.70 75.25 2.97 5
9 04/08/2020 00:54:30 -80.91, 21.42 104.80 04/08/2020 00:54:36 -80.91, 21.35 104.81 1.35 6
10 04/08/2020 01:45:03 80.91,-171.27 75.19 04/08/2020 01:45:17 80.91,-171.18 75.20 1.56 14
11 04/08/2020 02:35:32 -80.90, -3.64 104.82 04/08/2020 02:35:57 -80.92, -3.77 104.81 2.88 25
12 04/08/2020 03:26:06 80.92, 163.31 75.16 04/08/2020 03:26:39 80.91, 163.34 75.16 1.86 33
13 04/08/2020 04:16:35 -80.91, -29.05 104.85 04/08/2020 04:17:19 -80.91, -29.25 104.85 3.41 44
14 04/08/2020 05:07:08 80.91, 138.24 75.14 04/08/2020 05:08:00 80.92, 138.22 75.16 0.67 52
15 04/08/2020 05:57:38 -80.92, -54.47 104.88 04/08/2020 05:58:40 -80.92, -54.37 104.85 1.86 62




NCC Satellite Simultaneous Nadir Overpasses (SNOs) Prediction Service
